This demonstration page uses our WeatherBlox Daily Observations layout. Learn more.

Left ArrowRight Arrow

30.21309, -93.2044

Hourly Observations for February 6, 2022

Temp ( °F °C ) Dew Point ( °F °C ) Humidity (%) Winds ( mph kmh ) Pressure ( in mb ) Visibility ( mi km ) Precip ( " mm )
12:15 am 00:15 Clear 36 2.2 28 -2.5 71 71 Calm 30.34 1027 10 16 0.00 0.00
12:35 am 00:35 Clear 35 1.6 28 -2.2 76 76 Calm 30.34 1027 10 16 0.00 0.00
12:55 am 00:55 Clear 34 1.1 28 -2.3 78 78 Calm 30.34 1027 10 16 0.00 0.00
1:15 am 01:15 Clear 34 1.3 28 -2.1 78 78 Calm 30.34 1027 10 16 0.00 0.00
1:35 am 01:35 Clear 33 0.8 28 -2.3 80 80 Calm 30.33 1027 10 16 0.00 0.00
1:55 am 01:55 Clear 33 0.5 28 -2.1 83 83 Calm 30.33 1027 10 16 0.00 0.00
2:15 am 02:15 Clear 32 0.2 28 -2.1 85 85 NNW 3 6 30.32 1027 10 16 0.00 0.00
2:35 am 02:35 Clear 32 0.1 28 -2.3 84 84 Calm 30.32 1027 10 16 0.00 0.00
2:55 am 02:55 Clear 31 -0.3 27 -2.6 85 85 Calm 30.31 1026 10 16 0.00 0.00
3:15 am 03:15 Clear 31 -0.5 28 -2.4 87 87 NNE 3 6 30.30 1026 10 16 0.00 0.00
3:35 am 03:35 Clear 31 -0.6 28 -2.1 90 90 NE 3 6 30.29 1026 10 16 0.00 0.00
3:55 am 03:55 Clear 30 -0.9 27 -2.6 88 88 Calm 30.29 1026 10 16 0.00 0.00
4:15 am 04:15 Clear 29 -1.6 27 -3 90 90 Calm 30.29 1026 10 16 0.00 0.00
4:35 am 04:35 Clear 29 -1.5 27 -2.7 92 92 NNE 3 6 30.30 1026 10 16 0.00 0.00
4:55 am 04:55 Clear 30 -1.2 28 -2.4 92 92 Calm 30.30 1026 10 16 0.00 0.00
5:15 am 05:15 Clear 31 -0.8 28 -2.4 89 89 Calm 30.30 1026 10 16 0.00 0.00
5:35 am 05:35 Clear 30 -1 27 -2.6 89 89 Calm 30.31 1026 10 16 0.00 0.00
6:00 am 06:00 Mostly Clear 30 -1 28 -2 93 93 Calm 30.31 1026 10 16 0.00 0.00
6:53 am 06:53 Mostly Clear 28 -2 27 -3 93 93 Calm 30.32 1027 10 16 0.00 0.00
7:55 am 07:55 Mostly Sunny 34 1 30 -1 87 87 Calm 30.32 1027 10 16 0.00 0.00
8:55 am 08:55 Mostly Sunny 39 4 28 -2 65 65 Calm 30.34 1027 10 16 0.00 0.00
9:51 am 09:51 Mostly Sunny 43 6 30 -1 61 61 Calm 30.34 1027 10 16 0.00 0.00
10:48 am 10:48 Mostly Sunny 48 9 28 -2 46 46 Calm 30.34 1027 10 16 0.00 0.00
11:54 am 11:54 Mostly Sunny 52 11 27 -3 38 38 ESE 8 13 30.32 1027 10 16 0.00 0.00
12:46 pm 12:46 Mostly Sunny 52 11 25 -4 35 35 Calm 30.28 1025 10 16 0.00 0.00
1:52 pm 13:52 Mostly Sunny 55 13 25 -4 31 31 VRB 5 7 30.23 1024 10 16 0.00 0.00
2:48 pm 14:48 Mostly Sunny 55 13 25 -4 31 31 Calm 30.22 1023 10 16 0.00 0.00
3:45 pm 15:45 Mostly Sunny 55 13 27 -3 33 33 Calm 30.20 1023 10 16 0.00 0.00
4:45 pm 16:45 Mostly Sunny 55 13 27 -3 33 33 Calm 30.21 1023 10 16 0.00 0.00
5:55 pm 17:55 Mostly Clear 50 10 30 -1 47 47 Calm 30.21 1023 10 16 0.00 0.00
6:45 pm 18:45 Mostly Clear 46 8 30 -1 53 53 ENE 6 9 30.22 1023 10 16 0.00 0.00
7:45 pm 19:45 Mostly Clear 43 6 30 -1 61 61 Calm 30.23 1024 10 16 0.00 0.00
8:47 pm 20:47 Mostly Clear 45 7 30 -1 57 57 Calm 30.25 1024 10 16 0.00 0.00
9:55 pm 21:55 Mostly Clear 43 6 32 0 66 66 Calm 30.26 1025 10 16 0.00 0.00
10:15 pm 22:15 Clear 42 5.7 33 0.3 69 69 Calm 30.26 1025 10 16 0.00 0.00
10:35 pm 22:35 Clear 41 5 32 -0.2 69 69 Calm 30.26 1025 10 16 0.00 0.00
10:55 pm 22:55 Clear 40 4.3 32 -0.1 73 73 NE 3 6 30.25 1024 10 16 0.00 0.00
11:15 pm 23:15 Clear 42 5.3 32 0 69 69 Calm 30.27 1025 10 16 0.00 0.00
11:35 pm 23:35 Clear 40 4.4 32 -0.1 73 73 NNW 3 6 30.27 1025 10 16 0.00 0.00
11:55 pm 23:55 Clear 39 4.1 33 0.3 77 77 N 3 6 30.26 1025 10 16 0.00 0.00

Powered by AerisWeather